User: anonymous   Login
Location: Unspecified
(0.0000°N, 0.0000°E)
Time: 07:45:24
(UTC+00:00)
Language:

DOVE 4 - Orbit

View from above orbital plane
View from above orbital plane
View from above satellite
View from above satellite

Ground track
Ground track

The orbit data is extracted from the following two-line orbital elements,

1 39430U 13066Q   20299.79748526  .00000216  00000-0  47549-4 0  9997
2 39430  97.7981 230.4950 0151607 133.5795 227.8117 14.59452018368811
Epoch (UTC): 25 October 2020 19:08:22
Eccentricity: 0.0151607
inclination: 97.7981°
perigee height: 588 km
apogee height: 802 km
right ascension of ascending node: 230.4950°
argument of perigee: 133.5795°
revolutions per day: 14.59452018
mean anomaly at epoch: 227.8117°
orbit number at epoch: 36881

The dashed part of the orbit path shows where the satellite is in the earth's shadow,  

DLR